Location: Almena City Lake
(39.8850°N, 99.6804°W)
Time: 22:36:29
(UTC+00:00)

Cosmos 1354 Rocket - Pass Details

Date: 18 February 2020
Orbit: 765 x 782 km, 74.0° (Epoch: 05 April)

Event Time Altitude Azimuth Distance (km) Brightness Sun altitude
Rises 01:20:39 0° 341° (NNW) 3,269 7.5 -12.9°
Reaches altitude 10° 01:23:03 10° 342° (NNW) 2,335 6.7 -13.4°
Maximum altitude 01:28:22 84° 71° (ENE) 783 4.0 -14.4°
Drops below altitude 10° 01:33:37 10° 160° (SSE) 2,307 6.3 -15.4°
Sets 01:35:59 0° 161° (SSE) 3,227 7.1 -15.8°
